Regional Weather Roundup
Issued by NWS Portland, ME

Current Version | Previous Version | Text Only | Print | Product List | Glossary Off
Versions: 1 2 3 4 5 6 7 8 9 10 11 12 13 14 15 16 17 18 19 20 21 22 23 24 25 26 27 28 29 30 31 32 33 34 35 36 37 38 39 40 41 42 43 44 45 46 47 48 49 50
000 ASUS41 KGYX 190405 RWRGYX WEATHER ROUNDUP FOR MAINE AND NEW HAMPSHIRE NATIONAL WEATHER SERVICE GRAY ME 1100 PM EST TUE DEC 18 2018 MEZ002-005-006-010-012-015-018-020-021-024-026-027-029-190500- MAINE CITY SKY/WX TMP DP RH WIND PRES REMARKS PORTLAND FAIR 20 10 65 W7 29.97S SANFORD FAIR 19 11 70 W5 29.98S BAR HARBOR CLOUDY 21 15 78 W10 29.87R WCI 10 WISCASSET FAIR 20 11 68 CALM 29.95S ROCKLAND FAIR 20 12 71 W7 29.91R FRYEBURG FAIR 11 7 84 CALM 29.95R LEWISTONAUBURN FAIR 19 10 68 NW6 29.93F AUGUSTA FAIR 19 9 65 W10 29.90F WCI 7 WATERVILLE FAIR 17 10 74 MISG 29.87S BANGOR MOCLDY 22 12 65 W12G25 29.86R WCI 10 GREENVILLE N/A 15 8 73 NW17G33 29.76R WCI -1 MILLINOCKET FAIR 20 10 65 NW16G24 29.81R WCI 6 HOULTON CLOUDY 21 13 71 NW13G25 29.72S WCI 9 PRESQUE ISLE CLOUDY 22 13 68 NW16 29.75R WCI 8 FRENCHVILLE CLOUDY 21 11 65 NW20G31 29.71R WCI 6 CARIBOU CLOUDY 22 12 65 NW17G25 29.72R WCI 8 $$ NHZ002-005-008-009-011-012-014-190500- NEW HAMPSHIRE CITY SKY/WX TMP DP RH WIND PRES REMARKS PORTSMOUTH PTCLDY 22 9 58 W9G17 29.98S ROCHESTER FAIR 21 10 62 NW9 29.98R NASHUA FAIR 21 10 62 NW14 30.04S WCI 8 MANCHESTER FAIR 22 9 57 NW14 30.02R WCI 9 CONCORD FAIR 21 11 65 NW16G28 30.04R WCI 7 LACONIA FAIR 19 10 68 W13G21 30.00S WCI 6 PLYMOUTH FLURRIES 21 11 65 NW8G21 30.02S BERLIN LGT SNOW 17 10 74 CALM 29.95S WHITEFIELD LGT SNOW 16 11 80 W3 30.00S JAFFREY FAIR 18 10 71 CALM 30.00S KEENE FAIR 17 10 74 N7 30.08S LEBANON FAIR 20 8 60 W6 30.06S MT WASHINGTON MOCLDY 7 -6 56 NW86G96 N/A WCI -26 $$ VTZ005-007-008-190500- VERMONT CITY SKY/WX TMP DP RH WIND PRES REMARKS ST JOHNSBURY N/A 19 10 68 MISG 30.03S MONTPELIER FLURRIES 15 10 80 NW13 30.06R WCI 1 BURLINGTON FAIR 20 9 62 NW10 30.11S WCI 9 $$ MAZ007-012-024-CTZ003-RIZ002-NYZ038-NYZ072-190500- SOUTHERN NEW ENGLAND AND NY CITY SKY/WX TMP DP RH WIND PRES REMARKS BOSTON FAIR 26 10 50 W17 30.03F WCI 13 WORCESTER FAIR 18 9 68 NW16G25 29.98F WCI 3 NANTUCKET FAIR 28 13 53 NW17G26 30.00F WCI 16 PROVIDENCE FAIR 24 11 57 NW9 30.06S HARTFORD FAIR 20 11 68 NW8 30.09F ALBANY FAIR 20 10 65 NW6 30.17S NEW YORK CITY FAIR 29 15 56 NW15G26 30.15S WCI 18 $$ ANZ081-ANZ082-ANZ150-NHZ014-MEZ023>029-190500- COASTAL MARINE OBSERVATIONS STATION/POSITION TIME TEMP WIND PRES WAVE AIR SEA DIR/SP/G HT/PER (UTC) (F) (DEG/KT/KT) (MB) (FT/S) MOUNT DESERT ROC 0400 26 290/ 35/ 41 1011.2R MATINICUS ROCK 0300 26 290/ 29/ 31 1011.4R ISLE OF SHOALS 0300 24 300/ 20/ 23 1015.2R JEFFREYS LEDGE 0308 46 N/A 6/ 5 CASHES LEDGE BUO 0350 29 46 1013.0R 7/ 6 $$ .............KEY.............. WCI - WIND CHILL TC - TEMPERATURE IN CELSIUS VSB - VISIBILITY IN MILES HX - HEAT INDEX FAIR- INDICATES FEW OR NO CLOUDS BELOW 12,000 FT, WITH NO SIGNIFICANT WEATHER AND/OR OBSTRUCTIONS TO VISIBILITY.

USA.gov is the U.S. government's official web portal to all federal, state and local government web resources and services.